DW2487 Weather Reports


time (UTC)temp
C
wind
direction
speed
KPH
gust
KPH
rain 1hr
cm
rain 24hr
cm
rain mn
cm
humidity
%
barometer
mb
20260502211533 17 34 1.6 0.0 0.00 0.00 0.00 35 1009.6
20260502210026 18 109 0.0 0.0 0.00 0.00 0.00 33 1009.9
20260502204510 18 320 3.2 0.0 0.00 0.00 0.00 33 1010.3
20260502203001 17 275 1.6 0.0 0.00 0.00 0.00 34 1010.5
20260502201548 17 340 1.6 0.0 0.00 0.00 0.00 33 1011.0
20260502200041 17 275 3.2 0.0 0.00 0.00 0.00 35 1011.4
20260502194527 17 263 1.6 0.0 0.00 0.00 0.00 33 1011.7
20260502193025 17 269 1.6 0.0 0.00 0.00 0.00 33 1012.0
20260502191522 17 73 1.6 0.0 0.00 0.00 0.00 35 1012.3
20260502190020 17 74 3.2 0.0 0.00 0.00 0.00 33 1012.6
20260502184516 16 117 1.6 0.0 0.00 0.00 0.00 36 1012.9
20260502183016 16 266 4.8 0.0 0.00 0.00 0.00 35 1013.0
20260502181511 16 250 3.2 0.0 0.00 0.00 0.00 35 1013.4
20260502163003 14 85 0.0 0.0 0.00 0.00 0.00 37 1015.2
20260502161543 14 103 0.0 0.0 0.00 0.00 0.00 38 1015.3
20260502151500 11 281 1.6 0.0 0.00 0.00 0.00 43 1016.2
20260502123033 0 296 0.0 0.0 0.00 0.00 0.00 91 1017.1
20260502121539 0 296 0.0 0.0 0.00 0.00 0.00 91 1017.0
20260502114510 -2 296 0.0 0.0 0.00 0.00 0.00 90 1016.9
20260502113052 -2 296 0.0 0.0 0.00 0.00 0.00 90 1016.9
20260502111604 -2 296 0.0 0.0 0.00 0.00 0.00 90 1016.9
20260502110036 -2 296 0.0 0.0 0.00 0.00 0.00 89 1017.0
20260502104533 -2 296 0.0 0.0 0.00 0.00 0.00 89 1016.8
20260502103020 -2 296 0.0 0.0 0.00 0.00 0.00 89 1016.7
20260502101515 -2 296 0.0 0.0 0.00 0.00 0.00 88 1016.7
20260502071514 0 296 0.0 0.0 0.00 0.00 0.00 82 1016.9
20260502070052 0 296 0.0 0.0 0.00 0.00 0.00 79 1017.0
20260502064551 0 296 0.0 0.0 0.00 0.00 0.00 77 1016.9
20260502063032 0 296 0.0 0.0 0.00 0.00 0.00 75 1017.0
20260502061530 0 296 0.0 0.0 0.00 0.00 0.00 74 1017.1
20260502060017 0 296 0.0 0.0 0.00 0.00 0.00 73 1016.9
20260502054517 0 296 0.0 0.0 0.00 0.00 0.00 73 1017.0
20260502053055 1 296 0.0 0.0 0.00 0.00 0.00 73 1017.0
20260502051549 1 296 0.0 0.0 0.00 0.00 0.00 73 1017.1
20260502050031 1 296 0.0 0.0 0.00 0.00 0.00 71 1017.2
20260502044528 1 296 0.0 0.0 0.00 0.00 0.00 70 1017.2
20260502043013 1 296 0.0 0.0 0.00 0.00 0.00 70 1017.1
20260502041512 2 296 0.0 0.0 0.00 0.00 0.00 70 1017.1
20260502040011 2 296 0.0 0.0 0.00 0.00 0.00 67 1017.0
20260502034508 2 296 0.0 0.0 0.00 0.00 0.00 66 1017.0
20260502033005 2 296 0.0 0.0 0.00 0.00 0.00 64 1017.0
20260502031504 3 296 0.0 0.0 0.00 0.00 0.00 63 1017.1
20260502030001 3 296 0.0 0.0 0.00 0.00 0.00 61 1017.0
20260502024558 3 296 0.0 0.0 0.00 0.00 0.00 58 1016.9
20260502023040 4 296 0.0 0.0 0.00 0.00 0.00 58 1016.8
20260502021534 5 296 0.0 0.0 0.00 0.00 0.00 54 1016.7
20260502020013 5 296 0.0 0.0 0.00 0.00 0.00 52 1016.7
20260502014521 6 296 0.0 0.0 0.00 0.00 0.00 49 1016.6
20260502013050 7 296 0.0 0.0 0.00 0.00 0.00 48 1016.5
20260502011545 8 296 0.0 0.0 0.00 0.00 0.00 44 1016.4
20260502010023 9 296 0.0 0.0 0.00 0.00 0.00 39 1016.3
20260502004539 10 296 1.6 0.0 0.00 0.00 0.00 36 1016.3
20260502003100 11 296 3.2 0.0 0.00 0.00 0.00 34 1016.3
20260502001558 11 308 0.0 0.0 0.00 0.00 0.00 30 1016.3
20260502000051 12 325 4.8 0.0 0.00 0.00 0.00 28 1016.2
20260501234539 12 306 1.6 0.0 0.00 0.00 0.00 29 1016.2
20260501233021 12 318 3.2 0.0 0.00 0.00 0.00 31 1016.2
20260501231534 12 285 1.6 0.0 0.00 0.00 0.00 30 1016.2
20260501230002 11 305 1.6 0.0 0.00 0.00 0.00 30 1016.2
20260501224600 11 308 1.6 0.0 0.00 0.00 0.00 32 1016.3
20260501223041 12 309 4.8 0.0 0.00 0.00 0.00 31 1016.3
20260501221540 12 321 6.4 0.0 0.00 0.00 0.00 29 1016.2
20260501220027 12 296 4.8 0.0 0.00 0.00 0.00 33 1016.4
20260501214527 12 314 3.2 0.0 0.00 0.00 0.00 32 1016.6